Location: Unspecified
(0.0000°N, 0.0000°E)
Time: 08:16:27
(UTC+00:00)

Vanguard 1 Rocket - All Passes

Search period start: 20 April 2014 00:00
Search period end: 30 April 2014 00:00
Orbit: 650 x 4230 km, 34.3° (Epoch: 18 April)

Date Brightness Start Highest point End Pass type
(mag) Time Alt. Az. Time Alt. Az. Time Alt. Az.
20 Apr - 07:08:24 10° NNE 07:11:05 13° NE 07:14:19 10° ENE daylight
20 Apr - 09:29:12 10° NW 09:36:01 84° SW 09:49:48 10° SE daylight
20 Apr - 11:56:06 10° WSW 12:05:52 31° SSW 12:22:20 10° SE daylight
20 Apr - 14:29:44 10° SW 14:43:09 20° S 15:00:04 10° SE daylight
20 Apr - 17:04:13 10° SW 17:25:07 29° SSE 17:43:28 10° ESE daylight
20 Apr - 19:36:48 10° SW 20:01:49 60° SSE 20:16:41 10° ENE visible
20 Apr - 22:12:14 10° WSW 22:31:57 56° NW 22:42:10 10° NE visible
21 Apr - 08:19:37 10° NW 08:25:12 52° NE 08:35:18 10° ESE daylight
21 Apr - 10:44:21 10° W 10:52:26 41° SSW 11:07:31 10° SE daylight
21 Apr - 13:15:15 10° SW 13:26:16 21° S 13:41:53 10° SE daylight
21 Apr - 15:49:53 10° SSW 16:07:19 23° SSE 16:25:43 10° ESE daylight
21 Apr - 18:22:08 10° SW 18:46:39 45° SSE 19:04:01 10° E visible
21 Apr - 20:55:39 10° SW 21:19:32 84° NW 21:32:07 10° NE visible
21 Apr - 23:35:34 10° W 23:47:13 24° NW 23:54:36 10° N visible
22 Apr - 07:10:59 10° N 07:14:57 21° NE 07:20:26 10° E daylight
22 Apr - 09:33:33 10° WNW 09:40:14 60° SSW 09:53:19 10° SE daylight
22 Apr - 12:01:48 10° WSW 12:11:00 24° SSW 12:25:26 10° SSE daylight
22 Apr - 14:35:40 10° SW 14:49:16 20° S 15:05:57 10° SE daylight
22 Apr - 17:08:01 10° SW 17:30:19 34° SSE 17:49:28 10° E daylight
22 Apr - 19:40:05 10° SW 20:05:54 72° SE 20:21:07 10° ENE visible
22 Apr - 22:16:45 10° WSW 22:35:32 44° NW 22:45:49 10° NNE visible
23 Apr - 08:23:32 10° NW 08:29:06 78° NE 08:39:27 10° ESE daylight
23 Apr - 10:49:30 10° W 10:57:13 30° SSW 11:10:31 10° SE daylight
23 Apr - 13:21:34 10° SW 13:32:04 19° S 13:46:16 10° SE daylight
23 Apr - 15:54:22 10° SSW 16:13:03 26° SSE 16:32:23 10° ESE daylight
23 Apr - 18:25:26 10° SW 18:51:02 54° SSE 19:08:56 10° ENE visible
23 Apr - 20:59:28 10° WSW 21:23:11 69° NW 21:36:01 10° NE visible
23 Apr - 23:42:02 10° WNW 23:51:10 18° NW 23:57:35 10° N visible
24 Apr - 07:14:18 10° NNW 07:18:46 33° NE 07:25:33 10° ESE daylight
24 Apr - 09:38:12 10° W 09:44:41 42° SSW 09:56:35 10° SE daylight
24 Apr - 12:07:55 10° SW 12:16:23 19° S 12:28:41 10° SSE daylight
24 Apr - 14:40:59 10° SSW 14:55:20 21° SSE 15:12:33 10° SE daylight
24 Apr - 17:11:34 10° SW 17:35:07 41° SSE 17:55:03 10° E daylight
24 Apr - 19:43:31 10° SW 20:09:44 86° SE 20:25:18 10° NE visible
24 Apr - 22:21:49 10° W 22:39:10 34° NW 22:49:19 10° NNE visible
25 Apr - 06:06:50 10° NNE 06:08:29 12° NE 06:10:18 10° ENE daylight
25 Apr - 08:27:45 10° WNW 08:33:13 70° SW 08:43:14 10° SE daylight
25 Apr - 10:55:06 10° WSW 11:02:13 23° SSW 11:13:24 10° SSE daylight
25 Apr - 13:27:43 10° SSW 13:38:02 17° S 13:51:31 10° SE daylight
25 Apr - 15:58:22 10° SSW 16:18:22 31° SSE 16:38:47 10° E daylight
25 Apr - 18:28:45 10° SW 18:55:08 65° SE 19:13:30 10° ENE visible
25 Apr - 21:03:38 10° WSW 21:26:44 56° NW 21:39:45 10° NE visible
25 Apr - 23:49:41 10° WNW 23:55:25 13° NW 23:59:59 10° NNW visible
26 Apr - 07:17:59 10° NW 07:22:40 55° NE 07:30:06 10° ESE daylight
26 Apr - 09:43:15 10° W 09:49:21 29° SSW 09:59:38 10° SSE daylight
26 Apr - 12:14:23 10° SW 12:21:59 16° S 12:32:17 10° SSE daylight
26 Apr - 14:45:41 10° SSW 15:01:08 23° SSE 15:19:30 10° ESE daylight
26 Apr - 17:15:00 10° SW 17:39:32 49° SSE 18:00:12 10° ENE daylight
26 Apr - 19:47:09 10° SW 20:13:23 80° NW 20:29:17 10° NE visible
26 Apr - 22:27:30 10° W 22:42:59 27° NW 22:52:42 10° NNE visible
27 Apr - 06:09:07 10° N 06:12:29 20° NE 06:16:35 10° E daylight
27 Apr - 08:32:16 10° WNW 08:37:33 45° SSW 08:46:44 10° SE daylight
27 Apr - 11:01:15 10° SW 11:07:26 17° S 11:16:11 10° SSE daylight
27 Apr - 13:33:18 10° SSW 13:44:00 17° SSE 13:57:47 10° SE daylight
27 Apr - 16:02:04 10° SSW 16:23:15 36° SSE 16:44:45 10° E daylight
27 Apr - 18:32:10 10° SW 18:58:58 77° SE 19:17:48 10° ENE visible
27 Apr - 21:08:14 10° WSW 21:30:18 45° NW 21:43:22 10° NNE visible
28 Apr - 07:22:00 10° NW 07:26:41 89° SW 07:34:12 10° SE daylight
28 Apr - 09:48:47 10° WSW 09:54:13 21° SSW 10:02:25 10° SSE daylight
28 Apr - 12:20:55 10° SSW 12:27:45 14° S 12:36:32 10° SSE daylight
28 Apr - 14:49:50 10° SSW 15:06:33 26° SSE 15:26:22 10° ESE daylight
28 Apr - 17:18:23 10° SW 17:43:38 58° SE 18:04:58 10° ENE daylight
28 Apr - 19:51:05 10° WSW 20:16:56 67° NW 20:33:05 10° NE visible
28 Apr - 22:33:56 10° W 22:47:03 21° NW 22:55:56 10° N visible
29 Apr - 06:12:26 10° NNW 06:16:28 35° NE 06:21:38 10° ESE daylight
29 Apr - 08:37:10 10° W 08:42:06 29° SSW 08:49:55 10° SSE daylight
29 Apr - 11:08:08 10° SSW 11:12:51 13° S 11:18:48 10° SSE daylight
29 Apr - 13:38:10 10° SSW 13:49:49 19° SSE 14:04:49 10° ESE daylight
29 Apr - 16:05:37 10° SW 16:27:43 43° SSE 16:50:14 10° E daylight
29 Apr - 18:35:43 10° SW 19:02:37 90° SE 19:21:51 10° NE visible
29 Apr - 21:13:21 10° W 21:34:00 37° NW 21:46:53 10° NNE visible
